sat.trackr.live / text

‹ back to catalog

STARLINK-36711

NORAD 68040 · 2026-041A

PAYLOAD ACTIVE UNKNOWN

§ Identity

Operator
Country
US
Launch date
2026-03-02
Launch site
AFETR
Launch vehicle
Mass (kg)
RCS (m²)

Purposes: comms

External: N2YO · Heavens-Above · Gunter

§ Orbital elements

Epoch: 2026-09-19T11:42:12.862368Z

Period
93.85 min
Inclination
53.1595°
Eccentricity
0.0001274
Mean motion
15.34404498 rev/d
Perigee alt
461.8 km
Apogee alt
463.6 km
Semi-major
6,840.8 km
B*
5.5695e-4
RAAN
224.4586°
Arg perigee
98.4497°
Mean anomaly
261.6650°
Rev number
3,113

§ Raw data

STARLINK-367111 68040U 26041A   26262.48764887  .00018490  00000+0  55695-3 0  99952 68040  53.1595 224.4586 0001274  98.4497 261.6650 15.34404498 31130

JSON: /api/v1/satellites/68040 · /tle

For live sub-satellite position, see the globe view (requires WebGL).

§ Visibility from observer

Set your observer location to see the next 7 days of passes ≥ 10°. The values pass through the URL so the page stays shareable.

No JS? Fill the form by hand. The geolocation button needs JavaScript.